STARLINK-33651, 63588

Orbit data source: Space-Track

STARLINK-33651, 63588 is a payload satellite owned by SpaceX/Seattle (US) in LEO that was launched on Mon, 14 Apr 2025 UTC via an FALCON 9 launch vehicle from the Air Force Eastern Test Range (AFETR). Payload-class satellites include a variety of spacecraft equipped with specific instruments for various scientific and technological missions. These include communications satellites like Starlink; space stations such as the ISS; scientific satellites like the Hubble; Earth observation satellites from companies like Planet Labs, Umbra, and HawkEye 360; GPS; miniature CubeSats for education and research; and military/defense satellites.

Loading next visibility...
Identifier
63588, 2025-076V
Orbit
LEO
Country
Flag of USUS
Related business
Manufacturer
SpaceX/Seattle
Mission
Operational Commercial Communications
Bus & Motor
STARLINK V2MO, Unknown motor
Mass
575 kg wet, ~530 kg dry
Launch date (UTC)
2025-04-14 (1 year ago)
Launch vehicle
FALCON 9
Launch site
Air Force Eastern Test Range (AFETR)
Object type
Payload
Rocket body
Debris
Shape & HBR
Box + 2 Pan, 17.7 m
Radar Cross Section
36.964 m², Large (>1 m²)

Expand to show TLE details & history
Last TLE update: 9 hours ago

TLE from 9 hours ago
0 STARLINK-33651
1 63588U 25076V   26145.01779138  .00014402  00000-0  53153-3 0  9995
2 63588  43.0038 250.6460 0003564 271.6830  88.3614 15.27597506 63509
Epoch: 2026-05-25T00:25Z
TLE epoch observation values (Epoch: 2026-05-25T00:25:37.175Z)
Latitude
0.00003°
Longitude
1.62952°
Altitude
482.703 km
Speed
7.626 km/s
True Right ascension
16h 42m 35s
True Declination
0° 00' 00"
Sunlit
Object was in full shadow at epoch
Visualization orbit readout
Latitude
Unknown
Longitude
Unknown
Altitude
Unknown
Speed
Unknown
Apparent Right ascension
Unknown
Apparent Declination
Unknown
Sunlit
N/A
Visualization observer readout
Local Sidereal Time
18:36:18
Azimuth
Unknown
Elevation
Unknown
Doppler factor
Unknown
Orbital elements
Apogee altitude
487.387 km
Perigee altitude
482.495 km
Semi-major axis
6,863.078 km
Eccentricity
0.00036
Inclination
43.0038°
RAAN
250.646°
Arg. of periapsis
271.683°
True anomaly
88.40222°
Mean anomaly
88.3614°
Eccentric anomaly
88.38181°
Mean motion
3.81737 °/min
Orbital period
94.31 mins
BSTAR
0.00053153
Loading maneuver chart data...
Computing Atmospheric mass density...
Loading historical data...
Loading historical data...
Loading historical data...
Loading historical data...
Loading historical data...
Loading historical data...
Loading historical data...

Documentation

Showing up to 5 results
|